Showing default

LKW-4, 43236

Orbit data source: Space-Track

LKW-4, 43236 is a Chinese payload satellite in SSO that was launched on Sat, 17 Mar 2018 UTC via a CHANG ZHENG 2D launch vehicle from the Jiuquan Satellite Launch Center, China (JSC). Payload-class satellites include a variety of spacecraft equipped with specific instruments for various scientific and technological missions. These include communications satellites like Starlink; space stations such as the ISS; scientific satellites like the Hubble; Earth observation satellites from companies like Planet Labs, Umbra, and HawkEye 360; GPS; miniature CubeSats for education and research; and military/defense satellites.

Loading next visibility...
Identifier
43236, 2018-025A
Orbit
SSO
Country
Flag of CNCN / PRC
Related business
Manufacturer
CAST?
Mission
Operational Defense Imaging
Bus & Motor
LKW, Unknown motor
Mass
~2,000 kg wet, ~2,000 kg dry
Launch date (UTC)
2018-03-17 (8 years ago)
Launch vehicle
CHANG ZHENG 2D
Launch site
Jiuquan Satellite Launch Center, China (JSC)
Object type
Payload
Rocket body
Debris
Shape & HBR
Hex Cyl + 3 Pan, 5.0 m
Radar Cross Section
8.135 m², Large (>1 m²)

Expand to show TLE details & history
Last TLE update: 1 day ago

TLE from 1 day ago
0 LKW-4
1 43236U 18025A   25257.98655685  .00018799  00000-0  44369-3 0  9990
2 43236  97.6120  47.2741 0003398 213.2078 146.8956 15.41923709417356
Epoch: 2025-09-14T23:40Z
TLE epoch observation values (Epoch: 2025-09-14T23:40:38.511Z)
Latitude
-0.00001°
Longitude
57.91595°
Altitude
445.488 km
Speed
7.644 km/s
True Right ascension
03h 09m 05s
True Declination
0° 00' 00"
Sunlit
Object was in full shadow at epoch
Visualization orbit readout
Latitude
Unknown
Longitude
Unknown
Altitude
Unknown
Speed
Unknown
Apparent Right ascension
Unknown
Apparent Declination
Unknown
Sunlit
N/A
Visualization observer readout
Local Sidereal Time
19:05:11
Azimuth
Unknown
Elevation
Unknown
Doppler factor
Unknown
Orbital elements
Apogee altitude
439.694 km
Perigee altitude
435.062 km
Semi-major axis
6,815.515 km
Eccentricity
0.00034
Inclination
97.612°
RAAN
47.2741°
Arg. of periapsis
213.2078°
True anomaly
146.91686°
Mean anomaly
146.8956°
Eccentric anomaly
146.90623°
Mean motion
3.8574 °/min
Orbital period
93.33 mins
BSTAR
0.00044369
Loading maneuver chart data...
Computing Atmospheric mass density...
Loading historical data...
Loading historical data...
Loading historical data...
Loading historical data...
Loading historical data...
Loading historical data...
Loading historical data...

Documentation

Showing up to 5 results
|